Other Public Products
Issued by NWS Grand Forks, ND

Home | Current Version | Previous Version | Text Only | Print | Product List | Glossary On
Versions: 1 2 3 4 5 6 7 8 9 10 11 12 13 14 15 16 17 18 19 20 21 22 23 24 25 26 27 28 29 30 31 32 33 34 35 36 37 38 39 40 41 42 43 44 45 46 47 48 49 50
000
FPUS83 KFGF 030810
OPUFGF
PRAIRIE TO PINES WEATHER ROUNDUP
NATIONAL WEATHER SERVICE EASTERN NORTH DAKOTA/GRAND FORKS ND
300 AM CDT FRI JUL 03 2015

 **SATELLITE DATA USED TO AUGMENT SKY COVER AT AUTOMATED STATIONS**
 *****  WEATHER ACROSS EASTERN NORTH DAKOTA  *****

CITY           SKY/WX    TMP DP  RH WIND       PRES   REMARKS
GRAND FORKS    CLOUDY    63  62  97 NW5       29.89R FOG
GRAND FORKS AF CLEAR     65  63  93 NW6       29.90S FOG
GRAND CITY NWS   N/A     64 N/A N/A W1          N/A
BUXTON         NOT AVBL
DEVILS LAKE    CLOUDY    64  61  88 N3        29.93R
FARGO          CLEAR     62  58  86 S7        29.91F
WAHPETON ARPT  SUNNY     57  54  88 S5        29.94F
$$

 *****  WEATHER ACROSS CENTRAL AND WESTERN NORTH DAKOTA  *****

CITY           SKY/WX    TMP DP  RH WIND       PRES   REMARKS
JAMESTOWN      CLOUDY    63  59  87 W3        29.94S FOG
BISMARCK       CLOUDY    64  62  93 W3        29.99S FOG
MINOT          CLOUDY    63  60  90 SW9       29.97S FOG
MINOT AFB      CLEAR     61  61 100 W3        29.96S
GARRISON         N/A     63  60  90 CALM      29.99S
WILLISTON      CLEAR     64  60  87 NE3       30.02S FOG
DICKINSON      CLEAR     59  56  89 SW3       30.03F FOG
HETTINGER      CLEAR     57  55  93 CALM      30.06S FOG
$$

 *****  OTHER OBSERVATIONS NORTHEAST NORTH DAKOTA  *****

CITY           SKY/WX    TMP DP  RH WIND       PRES   REMARKS
WALHALLA       FAIR      64  64 100 MISG      29.91R FOG
LANGDON        FOG       61  61 100 NW5       29.95R VSB 1/2
CAVALIER       FAIR      63  61  94 W5        29.90R FOG
GRAFTON        FAIR      66  66 100 W7        29.91R FOG
CANDO          CLOUDY    59  59 100 N6        29.95S FOG
FORT TOTTEN      N/A     65  65 100 CALM      29.95S
ROLLA          CLOUDY    59  59 100 NW7       29.97S FOG
RUGBY          NOT AVBL
 ***** THE ABOVE OBSERVATIONS ARE NON NWS ARE NOT QUALITY
        CONTROLLED AND MAY MIS-REPORT RAIN FOR SNOW...
$$

 *****  OTHER OBSERVATIONS SOUTHEAST NORTH DAKOTA *****

CITY           SKY/WX    TMP DP  RH WIND       PRES   REMARKS
COOPERSTOWN    NOT AVBL
VALLEY CITY    FAIR      63  63 100 SW3       29.94S FOG
OAKES            N/A     63  63 100 SW7       29.95S
GWINNER          N/A     64  63  94 SW9       29.95S
SHEYENNE NWR     N/A     63  62  97 W2        29.95
BUFFALO        NOT AVBL
WYNDMERE       NOT AVBL
 ***** THE ABOVE OBSERVATIONS ARE NON NWS ARE NOT QUALITY
       CONTROLLED AND MAY MIS-REPORT RAIN FOR SNOW...
$$

  *****  WEATHER ACROSS NORTHERN MINNESOTA  *****

CITY           SKY/WX    TMP DP  RH WIND       PRES   REMARKS
FLAG ISLAND    MOCLDY    66  64  94 W8        29.84S FOG
WARROAD        PTCLDY    63  59  88 SW3       29.88R
ROSEAU         PTCLDY    64  61  88 W5        29.88R HAZE
HALLOCK        FOG       63  61  94 W6        29.88S VSB<1/4
THF RVR FALLS  CLOUDY    63  55  77 CALM      29.90S
HALSTAD        NOT AVBL
FOSSTON        MOCLDY    61  54  77 S6        29.92S
BAUDETTE       CLOUDY    64  56  75 W6        29.86S
WASKISH        PTCLDY    68  59  73 SW10G17   29.88F
CROOKSTON      CLEAR     63  59  88 CALM      29.90S
$$
  *****  WEATHER ACROSS CENTRAL AND WEST MINNESOTA  *****

CITY           SKY/WX    TMP DP  RH WIND       PRES   REMARKS
BEMIDJI        CLEAR     61  53  74 SW5       29.92S
PARK RAPIDS    MOCLDY    60  53  77 W3        29.94S
WADENA         PTCLDY    55  52  88 CALM      29.95S
DETROIT LAKES  CLEAR     63  54  72 SW7       29.95S
MOORHEAD       CLEAR     63  57  82 S7        29.93S
FERGUS FALLS   CLEAR     61  55  82 S3        29.95S
ELBOW LAKE     FAIR      58  55  88 S7        29.96S
MORRIS MN      CLEAR     57  54  88 S5        29.96F
STAPLES        PTCLDY    55  50  82 CALM      29.95S
WHEATON        CLEAR     55  52  88 S5        29.97F
$$
  *****  WEATHER ELSEWHERE ACROSS MINNESOTA  *****

CITY           SKY/WX    TMP DP  RH WIND       PRES   REMARKS
DULUTH         MOCLDY    64  55  72 W9        29.92F
INTRNTL FALLS  CLOUDY    64  57  78 W6        29.86S
ELY            CLOUDY    64  57  77 SW5       29.89S
CLOQUET        MOCLDY    63  54  72 SW6       29.93F
BRAINERD       CLEAR     53  52  96 SW3       29.95F
HIBBING        MOCLDY    59  55  87 S3        29.91F
ALEXANDRIA     CLEAR     60  52  74 SW8       29.97F
SAINT CLOUD    CLEAR     53  52  96 CALM      29.97S
MINNEAPOLIS    CLEAR     65  55  70 CALM      29.98S
$$

  *****  WEATHER ACROSS SOUTH DAKOTA  *****

CITY           SKY/WX    TMP DP  RH WIND       PRES   REMARKS
SIOUX FALLS    FOG       57  56  96 CALM      30.01F VSB 1/4
BROOKINGS      CLEAR     55  50  82 CALM      30.03S
WATERTOWN      CLEAR     56  53  90 CALM      30.00R
HURON          CLEAR     59  57  93 S3        29.99S
SISSETON         N/A     64  55  72 W7        29.94F
ABERDEEN       CLEAR     62  60  93 S5        29.97S FOG
MITCHELL       CLEAR     58  57  97 SE3       30.01S FOG
PIERRE         CLEAR     61  61 100 CALM      29.99S FOG
MOBRIDGE       CLEAR     64  63  96 CALM      29.97S FOG
RAPID CITY     CLEAR     61  57  87 NW5       30.09F
$$

  *****  SOME WEATHER IN NEARBY STATES *****

CITY           SKY/WX    TMP DP  RH WIND       PRES   REMARKS
GLASGOW MT     PTCLDY    63  55  75 E7        30.02S HAZE
GREAT FALLS MT CLEAR     67  50  54 S5        30.02F
CHEYENNE WY    PTCLDY    60  55  83 NW3       30.24S
SCOTTSBLUFF NE MOCLDY    65  60  84 CALM      30.13S
OMAHA NE       MOCLDY    60  57  89 N6        29.99S
DES MOINES IA  CLOUDY    63  54  72 CALM      29.98F
DAVENPORT IA   CLOUDY    60  56  86 NE5       29.98S
CHICAGO IL     CLOUDY    56  49  77 N3        29.97F
EAU CLAIRE WI  CLEAR     57  56  96 CALM      29.98S FOG
LA CROSSE WI   PTCLDY    57  55  93 SE5       29.99S
$$

  *****  SOME NATIONAL WEATHER *****

CITY           SKY/WX    TMP DP  RH WIND       PRES   REMARKS
LA GUARDIA NY  CLEAR     68  54  60 N5        29.90R
RALEIGH NC     MOCLDY    71  69  93 CALM      29.91S FOG
ATLANTA GA     PTCLDY    75  71  87 SW7       29.96S
NEW ORLEANS LA CLOUDY    80  74  81 SW6       30.03F
OKLAHOMA CITY  LGT RAIN  69  69 100 SE16      29.92F
ALBUQUERQUE NM CLOUDY    69  59  70 N6        30.18F
SALT LAKE CITY CLEAR     79  47  32 E8        29.99R
LOS ANGELES CA MOCLDY    64  61  90 W8        29.95S
BOISE ID       CLEAR     77  51  40 S3        29.90R
SEATTLE WA     PTCLDY    78  53  41 NE7       29.95S
$$

*** WEATHER ACROSS MANITOBA...SASKATCHEWAN AND ONTARIO ***
                ***ONTARIO***

CITY           SKY/WX    TMP DP  RH WIND       PRES   REMARKS
GERALDTON      FOG       57  55  94 SW12      29.77F VSB 1/2
THUNDER BAY    TSTM      59  57  94 W7        29.84S
SIOUX LOOKOUT  PTCLDY    55 N/A N/A CALM      29.80S
TORONTO        CLEAR     54  41  62 N7        29.99S
BIG TROUT LK   CLOUDY    59  59 100 NW5       29.69R
PICKLE LAKE    NOT AVBL
DRYDEN         CLEAR     64  61  88 W8        29.81S FOG
KENORA         CLEAR     66  64  94 W5        29.84F FOG
$$
                *** MANITOBA***

CITY           SKY/WX    TMP DP  RH WIND       PRES   REMARKS
BRANDON        CLEAR     57  55  94 W7        29.94S SMOKE
DAUPHIN        CLEAR     61  57  88 W7        29.92F FOG
ISLAND LAKE    CLEAR     61  59  94 N6        29.83S
PILOT MOUND      N/A     55  55 100 NW6         N/A
THE PAS        CLOUDY    59  54  82 SE2       29.88F SMOKE
THOMPSON       CLEAR     50  48  93 N2        29.87R
WINNIPEG       CLEAR     63  61  94 W7        29.88S SMOKE
LYNN LAKE      CLOUDY    55  52  88 CALM      29.87S
CHURCHILL      LGT RAIN  55  48  76 CALM      29.83S
GILLAM         CLEAR     55  54  94 NE7       29.85R
$$
                ***SASKATCHEWAN***

CITY           SKY/WX    TMP DP  RH WIND       PRES   REMARKS
ESTEVAN        CLOUDY    59  59 100 SW2       30.01S SMOKE
KINDERSLEY     CLEAR     61  57  88 SE8       29.98S
LLOYDMINSTER   CLEAR     64  55  72 S10       29.92F
PRINCE ALBERT  CLOUDY    57  55  94 CALM      29.92F
REGINA         PTCLDY    59  57  94 VRB2      29.99F SMOKE



USA.gov is the U.S. government's official web portal to all federal, state and local government web resources and services.